Weather History for KE38 - April, 2013

Change the Weather History Date:

Thursday, April 4, 2013

  Actual Average Record
Temperature  
Mean Temperature 54 °F -  
Max Temperature 73 °F - - ()
Min Temperature 34 °F - - ()
Degree Days  
Heating Degree Days 12    
Growing Degree Days 4 (Base 50)    
Moisture  
Dew Point 30 °F    
Average Humidity 47    
Maximum Humidity 85    
Minimum Humidity 17    
Precipitation  
Precipitation 0.00 in - - ()
Sea Level Pressure  
Sea Level Pressure 30.24 in    
Wind  
Wind Speed 6 mph (South)    
Max Wind Speed 14 mph    
Max Gust Speed 20 mph    
Visibility 10 miles    
Events      
T = Trace of Precipitation, MM = Missing Value Source: NWS Daily Summary

Daily Weather History Graph

Daily Weather History Graph

Search for Another Location

Airport or City:

Trip Planner

Search our weather history database for the weather conditions in past years. The results will help you decide how hot, cold, wet, or windy it might be!

Date:

Astronomy

Apr. 04, 2013 Rise Set
Actual Time 7:39 AM CDT 8:15 PM CDT
Civil Twilight 7:15 AM CDT 8:39 PM CDT
Nautical Twilight 6:47 AM CDT 9:08 PM CDT
Astronomical Twilight 6:18 AM CDT 9:37 PM CDT
Moon 3:45 AM CDT (4/4) 2:58 PM CDT (4/4)
Length of Visible Light 13h 24m
Length of Day
12h 35m
Waning Crescent, 33% of the Moon is Illuminated
Apr 4
Waning Crescent
Apr 10
New
Apr 18
First Quarter
Apr 25
Full
May 2
Last Quarter

Hourly Weather History & Observations

Time (CDT) Temp. Windchill Dew Point Humidity Pressure Visibility Wind Dir Wind Speed Gust Speed Precip Events Conditions
12:15 AM 38.5 °F 34.1 °F 31.6 °F 76% 30.23 in 10.0 mi West 5.8 mph - N/A   Clear
12:35 AM 38.1 °F 34.6 °F 31.6 °F 77% 30.23 in 10.0 mi SW 4.6 mph - N/A   Clear
12:55 AM 37.2 °F 32.6 °F 31.8 °F 81% 30.23 in 10.0 mi SW 5.8 mph - N/A   Clear
1:15 AM 37.6 °F 34.0 °F 31.8 °F 80% 30.23 in 10.0 mi WSW 4.6 mph - N/A   Clear
1:35 AM 37.2 °F 31.2 °F 31.8 °F 81% 30.23 in 10.0 mi West 8.1 mph - N/A   Clear
1:55 AM 37.2 °F 33.6 °F 31.8 °F 81% 30.22 in 10.0 mi SW 4.6 mph - N/A   Clear
2:15 AM 34.9 °F 29.0 °F 30.9 °F 85% 30.22 in 10.0 mi SSW 6.9 mph - N/A   Clear
2:35 AM 36.5 °F 32.7 °F 31.6 °F 83% 30.22 in 10.0 mi SW 4.6 mph - N/A   Clear
2:55 AM 36.7 °F 32.9 °F 31.8 °F 83% 30.21 in 10.0 mi SW 4.6 mph - N/A   Clear
3:15 AM 37.6 °F 34.0 °F 32.0 °F 80% 30.20 in 10.0 mi SW 4.6 mph - N/A   Clear
3:35 AM 36.9 °F 33.1 °F 31.6 °F 81% 30.20 in 10.0 mi SW 4.6 mph - N/A   Clear
3:55 AM 35.8 °F 31.9 °F 30.4 °F 81% 30.20 in 10.0 mi SSW 4.6 mph - N/A   Clear
4:15 AM 34.5 °F 28.6 °F 30.2 °F 84% 30.19 in 10.0 mi WSW 6.9 mph - N/A   Clear
4:35 AM 34.9 °F 28.3 °F 30.7 °F 85% 30.20 in 10.0 mi WSW 8.1 mph - N/A   Clear
4:55 AM 35.6 °F 29.9 °F 31.3 °F 84% 30.20 in 10.0 mi WSW 6.9 mph - N/A   Clear
5:15 AM 38.7 °F 32.9 °F 32.0 °F 77% 30.20 in 10.0 mi SW 8.1 mph - N/A   Clear
5:35 AM 39.2 °F 33.6 °F 32.4 °F 76% 30.20 in 10.0 mi WSW 8.1 mph - N/A   Clear
5:55 AM 40.8 °F 35.6 °F 33.3 °F 74% 30.21 in 10.0 mi SW 8.1 mph - N/A   Clear
6:15 AM 41.2 °F 35.0 °F 33.8 °F 75% 30.21 in 10.0 mi SSW 10.4 mph - N/A   Clear
6:35 AM 41.2 °F 37.3 °F 33.8 °F 75% 30.22 in 10.0 mi SSW 5.8 mph - N/A   Clear
6:55 AM 41.5 °F 37.1 °F 33.8 °F 74% 30.23 in 10.0 mi SW 6.9 mph - N/A   Clear
7:15 AM 41.4 °F 36.8 °F 33.1 °F 72% 30.23 in 10.0 mi SW 6.9 mph - N/A   Clear
7:35 AM 42.3 °F 37.9 °F 33.1 °F 70% 30.24 in 10.0 mi WSW 6.9 mph - N/A   Clear
7:55 AM 41.0 °F 35.8 °F 32.9 °F 73% 30.25 in 10.0 mi SW 8.1 mph - N/A   Clear
8:15 AM 43.9 °F 39.3 °F 33.8 °F 68% 30.26 in 10.0 mi SW 8.1 mph - N/A   Clear
8:35 AM 47.7 °F - 34.3 °F 60% 30.26 in 10.0 mi WSW 6.9 mph - N/A   Clear
8:55 AM 50.7 °F - 34.2 °F 53% 30.27 in 10.0 mi WSW 6.9 mph - N/A   Clear
9:15 AM 52.0 °F - 34.7 °F 52% 30.28 in 10.0 mi NW 5.8 mph - N/A   Clear
9:35 AM 50.0 °F - 35.1 °F 57% 30.28 in 10.0 mi North 5.8 mph - N/A   Clear
9:55 AM 52.7 °F - 35.1 °F 51% 30.29 in 10.0 mi North 5.8 mph - N/A   Clear
10:15 AM 54.7 °F - 35.1 °F 48% 30.29 in 10.0 mi NNE 5.8 mph - N/A   Clear
10:35 AM 56.1 °F - 34.5 °F 44% 30.30 in 10.0 mi NE 4.6 mph - N/A   Clear
10:55 AM 58.3 °F - 35.1 °F 42% 30.30 in 10.0 mi North 3.5 mph - N/A   Clear
11:55 AM 62.6 °F - 34.0 °F 34% 30.30 in 10.0 mi NE 4.6 mph - N/A   Clear
12:35 PM 66.7 °F - 34.5 °F 30% 30.29 in 10.0 mi NE 10.4 mph - N/A   Clear
12:55 PM 67.5 °F - 34.3 °F 29% 30.29 in 10.0 mi NE 8.1 mph - N/A   Clear
1:15 PM 68.4 °F - 34.7 °F 29% 30.28 in 10.0 mi ENE 11.5 mph 16.1 mph N/A   Clear
1:35 PM 71.1 °F - 33.6 °F 25% 30.27 in 10.0 mi East 11.5 mph 19.6 mph N/A   Clear
1:55 PM 71.6 °F - 29.7 °F 21% 30.27 in 10.0 mi NNE 9.2 mph - N/A   Clear
2:15 PM 70.9 °F - 29.5 °F 22% 30.26 in 10.0 mi NNE 8.1 mph - N/A   Clear
2:35 PM 70.5 °F - 28.2 °F 21% 30.25 in 10.0 mi East 8.1 mph - N/A   Clear
2:55 PM 72.0 °F - 27.7 °F 19% 30.24 in 10.0 mi East 8.1 mph - N/A   Clear
3:15 PM 71.4 °F - 27.3 °F 19% 30.24 in 10.0 mi ENE 5.8 mph 17.3 mph N/A   Clear
3:35 PM 71.6 °F - 27.3 °F 19% 30.23 in 10.0 mi East 9.2 mph - N/A   Clear
3:55 PM 72.1 °F - 26.6 °F 18% 30.22 in 10.0 mi ENE 3.5 mph 8.1 mph N/A   Clear
4:15 PM 72.7 °F - 27.3 °F 19% 30.22 in 10.0 mi ENE 12.7 mph 16.1 mph N/A   Clear
4:35 PM 72.3 °F - 26.2 °F 18% 30.21 in 10.0 mi NE 10.4 mph 19.6 mph N/A   Clear
4:55 PM 73.0 °F - 26.2 °F 18% 30.21 in 10.0 mi ENE 9.2 mph 17.3 mph N/A   Clear
5:15 PM 73.6 °F - 25.7 °F 17% 30.21 in 10.0 mi NE 13.8 mph 18.4 mph N/A   Clear
5:35 PM 72.3 °F - 25.3 °F 17% 30.20 in 10.0 mi ENE 10.4 mph - N/A   Clear
5:55 PM 72.5 °F - 25.5 °F 17% 30.20 in 10.0 mi ENE 11.5 mph 17.3 mph N/A   Clear
6:15 PM 72.0 °F - 25.3 °F 18% 30.20 in 10.0 mi East 5.8 mph 16.1 mph N/A   Clear
6:35 PM 71.6 °F - 25.0 °F 17% 30.20 in 10.0 mi ENE 9.2 mph - N/A   Clear
6:55 PM 70.9 °F - 24.6 °F 18% 30.20 in 10.0 mi ENE 11.5 mph - N/A   Clear
7:15 PM 68.9 °F - 24.4 °F 19% 30.21 in 10.0 mi East 9.2 mph - N/A   Clear
7:55 PM 65.8 °F - 24.6 °F 21% 30.21 in 10.0 mi East 5.8 mph - N/A   Clear
8:15 PM 63.3 °F - 24.3 °F 23% 30.22 in 10.0 mi East 3.5 mph - N/A   Clear
8:35 PM 61.9 °F - 24.3 °F 24% 30.22 in 10.0 mi East 3.5 mph - N/A   Clear
8:55 PM 60.6 °F - 24.1 °F 25% 30.23 in 10.0 mi Calm Calm - N/A   Clear
9:15 PM 54.3 °F - 23.0 °F 30% 30.23 in 10.0 mi SW 3.5 mph - N/A   Clear
9:35 PM 54.7 °F - 24.3 °F 31% 30.24 in 10.0 mi SSW 5.8 mph - N/A   Clear
9:55 PM 53.1 °F - 24.1 °F 32% 30.24 in 10.0 mi Calm Calm - N/A   Clear
10:15 PM 53.1 °F - 24.8 °F 33% 30.26 in 10.0 mi South 5.8 mph - N/A   Clear
10:35 PM 51.3 °F - 23.9 °F 34% 30.26 in 10.0 mi SSW 4.6 mph - N/A   Clear
10:55 PM 52.2 °F - 24.8 °F 35% 30.27 in 10.0 mi SW 4.6 mph - N/A   Clear
11:15 PM 52.9 °F - 25.5 °F 35% 30.27 in 10.0 mi WSW 3.5 mph - N/A   Clear
11:35 PM 54.0 °F - 25.5 °F 33% 30.26 in 10.0 mi Calm Calm - N/A   Clear
11:55 PM 52.9 °F - 31.1 °F 43% 30.27 in 10.0 mi Calm Calm - N/A   Clear